Location: Atherton
(17.2661°S, 145.4859°E)
Time: 01:12:15
(UTC+10:00)

Explorer 7 - All Passes

Search period start: 24 June 2025 00:00
Search period end: 04 July 2025 00:00
Orbit: 445 x 571 km, 50.3° (Epoch: 22 June)

Date Brightness Start Highest point End Pass type
(mag) Time Alt. Az. Time Alt. Az. Time Alt. Az.
24 Jun - 00:14:16 10° W 00:16:36 15° SW 00:19:00 10° S night (unlit)
24 Jun - 08:38:06 10° SSW 08:42:19 53° SE 08:46:26 10° NE daylight
24 Jun - 10:20:03 10° WNW 10:20:52 10° WNW 10:21:42 10° NW daylight
24 Jun - 22:15:07 10° NNW 22:18:31 36° NE 22:22:03 10° ESE night (unlit)
24 Jun - 23:55:24 10° WSW 23:57:26 14° SW 23:59:33 10° S night (unlit)
25 Jun - 08:18:52 10° SSW 08:23:08 59° SE 08:27:17 10° NE daylight
25 Jun - 21:55:52 10° NNW 21:59:18 40° NE 22:02:54 10° ESE night (unlit)
25 Jun - 23:36:34 10° WSW 23:38:17 13° SW 23:40:02 10° SSW night (unlit)
26 Jun - 07:59:36 10° SSW 08:03:55 66° SE 08:08:06 10° NE daylight
26 Jun - 21:36:36 10° NNW 21:40:05 45° NE 21:43:44 10° SE night (unlit)
26 Jun - 23:17:50 10° WSW 23:19:06 11° SW 23:20:23 10° SSW night (unlit)
27 Jun - 07:40:21 10° SW 07:44:40 73° SE 07:48:54 10° NE daylight
27 Jun - 21:17:21 10° NNW 21:20:51 51° NE 21:24:32 10° SE night (unlit)
27 Jun - 22:59:26 10° SW 22:59:55 10° SW 23:00:23 10° SW night (unlit)
28 Jun - 07:21:05 10° SW 07:25:25 81° SE 07:29:40 10° NE daylight
28 Jun - 20:58:04 10° NNW 21:01:37 58° NE 21:05:18 10° SE night (unlit)
29 Jun - 07:01:49 10° SW 07:06:08 89° ESE 07:10:24 10° NE daylight
29 Jun - 20:38:48 10° NNW 20:42:21 66° NE 20:46:03 10° SE visible
30 Jun - 06:42:32 10° SW 06:46:51 83° NW 06:51:07 10° NE daylight
30 Jun - 20:19:31 10° NW 20:23:04 74° NE 20:26:47 10° SE visible
01 Jul - 06:23:14 10° SW 06:27:32 75° NW 06:31:48 10° NNE visible
01 Jul - 20:00:14 10° NW 20:03:47 84° NE 20:07:29 10° SE visible
02 Jul - 04:27:57 10° SSE 04:29:05 11° SE 04:30:12 10° ESE visible
02 Jul - 06:03:57 10° SW 06:08:13 67° NW 06:12:27 10° NNE visible
02 Jul - 19:40:55 10° NW 19:44:29 86° SW 19:48:10 10° SE visible
03 Jul - 04:08:12 10° SSE 04:09:48 12° SE 04:11:23 10° ESE visible
03 Jul - 05:44:38 10° SW 05:48:53 60° NW 05:53:05 10° NNE visible
03 Jul - 19:21:38 10° NW 19:25:10 76° SW 19:28:50 10° SE visible
